Change the Weather History Date:

Tuesday, November 19, 2013

  Actual Average Record
Temperature  
Mean Temperature 43 °F 34 °F  
Max Temperature 64 °F 48 °F 78 °F (2007)
Min Temperature 21 °F 20 °F -8 °F (1937)
Degree Days  
Heating Degree Days 22 31  
Month to date heating degree days 453 502  
Since 1 July heating degree days 1109 1193  
Cooling Degree Days 0 0  
Month to date cooling degree days 0 0  
Year to date cooling degree days 1047 724  
Moisture  
Dew Point 26 °F    
Average Humidity 53    
Maximum Humidity 81    
Minimum Humidity 25    
Precipitation  
Precipitation 0.00 in 0.02 in 0.75 in (1930)
Month to date precipitation 0.63 0.45  
Year to date precipitation 12.52 15.07  
Snow  
Snow 0.00 in 0.20 in 7.50 in (1930)
Month to date snowfall 10.0 3.4  
Since 1 July snowfall 16.6 6.6  
Snow Depth 0.00 in    
Sea Level Pressure  
Sea Level Pressure 29.78 in    
Wind  
Wind Speed 7 mph (West)    
Max Wind Speed 25 mph    
Max Gust Speed 37 mph    
Visibility 10 miles    
Events      
T = Trace of Precipitation, MM = Missing Value Source: NWS Daily Summary

Daily Weather History Graph

Daily Weather History Graph

Search for Another Location

Airport or City:

Trip Planner

Search our weather history database for the weather conditions in past years. The results will help you decide how hot, cold, wet, or windy it might be!

Date:

Astronomy

Nov. 19, 2013 Rise Set
Actual Time 6:49 AM MST 4:30 PM MST
Civil Twilight 6:18 AM MST 5:00 PM MST
Nautical Twilight 5:44 AM MST 5:34 PM MST
Astronomical Twilight 5:11 AM MST 6:07 PM MST
Moon 6:23 PM MST (11/19) 8:30 AM MST (11/19)
Length of Visible Light 10h 41m
Length of Day
9h 40m
Waning Gibbous, 96% of the Moon is Illuminated
Nov 19
Waning Gibbous
Nov 25
Last Quarter
Dec 2
New
Dec 9
First Quarter
Dec 17
Full

Hourly Weather History & Observations

Time (MST) Temp. Windchill Dew Point Humidity Pressure Visibility Wind Dir Wind Speed Gust Speed Precip Events Conditions
12:53 AM 30.0 °F 21.7 °F 21.0 °F 69% 29.94 in 10.0 mi East 9.2 mph - N/A   Clear
1:53 AM 25.0 °F - 19.0 °F 78% 29.94 in 10.0 mi Calm Calm - N/A   Clear
2:53 AM 25.0 °F - 19.0 °F 78% 29.90 in 10.0 mi Calm Calm - N/A   Clear
3:53 AM 23.0 °F - 18.0 °F 81% 29.91 in 10.0 mi Calm Calm - N/A   Clear
4:53 AM 23.0 °F 17.0 °F 17.1 °F 78% 29.90 in 10.0 mi ESE 4.6 mph - N/A   Clear
5:53 AM 27.0 °F 21.6 °F 19.9 °F 75% 29.88 in 10.0 mi East 4.6 mph - N/A   Clear
6:53 AM 25.0 °F - 19.9 °F 81% 29.89 in 10.0 mi Calm Calm - N/A   Clear
7:53 AM 30.9 °F - 23.0 °F 72% 29.88 in 10.0 mi Calm Calm - N/A   Clear
8:53 AM 35.1 °F - 23.0 °F 61% 29.84 in 10.0 mi Calm Calm - N/A   Clear
9:53 AM 43.0 °F - 26.1 °F 51% 29.82 in 10.0 mi Calm Calm - N/A   Clear
10:53 AM 46.9 °F - 26.1 °F 44% 29.79 in 10.0 mi Calm Calm - N/A   Clear
11:53 AM 52.0 °F - 25.0 °F 35% 29.73 in 10.0 mi WSW 6.9 mph - N/A   Clear
12:53 PM 54.0 °F - 27.0 °F 35% 29.69 in 10.0 mi WSW 3.5 mph - N/A   Clear
1:53 PM 62.1 °F - 26.1 °F 25% 29.66 in 10.0 mi WSW 8.1 mph - N/A   Clear
2:53 PM 60.1 °F - 27.0 °F 28% 29.68 in 10.0 mi West 16.1 mph 24.2 mph N/A   Clear
3:53 PM 57.9 °F - 28.0 °F 32% 29.69 in 10.0 mi West 12.7 mph 19.6 mph N/A   Clear
4:53 PM 55.9 °F - 28.9 °F 36% 29.70 in 10.0 mi West 12.7 mph - 0.01 in   Clear
5:53 PM 55.9 °F - 30.0 °F 37% 29.70 in 10.0 mi West 23.0 mph 35.7 mph N/A   Overcast
6:53 PM 54.0 °F - 30.9 °F 41% 29.71 in 10.0 mi West 20.7 mph 27.6 mph N/A   Partly Cloudy
7:53 PM 52.0 °F - 30.9 °F 45% 29.71 in 10.0 mi West 17.3 mph 23.0 mph N/A   Clear
8:53 PM 50.0 °F - 32.0 °F 50% 29.72 in 10.0 mi West 11.5 mph - N/A   Clear
9:53 PM 48.9 °F - 32.0 °F 52% 29.71 in 10.0 mi WNW 9.2 mph - N/A   Mostly Cloudy
10:53 PM 48.9 °F - 32.0 °F 52% 29.71 in 10.0 mi West 9.2 mph - N/A   Overcast
11:53 PM 48.9 °F - 32.0 °F 52% 29.70 in 10.0 mi West 8.1 mph - N/A   Mostly Cloudy